TimeEDT,TemperatureF,Dew PointF,Humidity,Sea Level PressureIn,VisibilityMPH,Wind Direction,Wind SpeedMPH,Gust SpeedMPH,PrecipitationIn,Events,Conditions,WindDirDegrees,DateUTC
12:54 AM,52.0,44.1,74,30.27,10.0,SSW,3.5,-,N/A,,Partly Cloudy,200,2012-10-26 04:54:00
1:54 AM,50.0,44.1,80,30.26,10.0,SSW,4.6,-,N/A,,Partly Cloudy,200,2012-10-26 05:54:00
2:54 AM,50.0,44.1,80,30.25,10.0,Calm,Calm,-,N/A,,Clear,0,2012-10-26 06:54:00
3:54 AM,48.0,43.0,83,30.25,10.0,Calm,Calm,-,N/A,,Partly Cloudy,0,2012-10-26 07:54:00
4:54 AM,48.0,44.1,86,30.25,10.0,SSW,4.6,-,N/A,,Partly Cloudy,200,2012-10-26 08:54:00
5:54 AM,46.9,44.1,90,30.25,10.0,SSW,5.8,-,N/A,,Clear,200,2012-10-26 09:54:00
6:54 AM,48.9,45.0,86,30.23,10.0,South,4.6,-,N/A,,Clear,180,2012-10-26 10:54:00
7:54 AM,48.9,46.0,90,30.24,10.0,South,3.5,-,N/A,,Clear,190,2012-10-26 11:54:00
8:54 AM,53.1,48.0,83,30.25,10.0,South,4.6,-,N/A,,Clear,180,2012-10-26 12:54:00
9:54 AM,57.0,50.0,77,30.25,10.0,South,4.6,-,N/A,,Scattered Clouds,170,2012-10-26 13:54:00
10:09 AM,57.2,50.0,77,30.25,10.0,SE,5.8,-,N/A,,Mostly Cloudy,140,2012-10-26 14:09:00
10:54 AM,57.9,50.0,75,30.25,10.0,SE,4.6,-,N/A,,Mostly Cloudy,140,2012-10-26 14:54:00
11:54 AM,62.1,51.1,67,30.22,10.0,South,5.8,-,N/A,,Mostly Cloudy,190,2012-10-26 15:54:00
12:44 PM,64.4,51.8,64,30.21,10.0,SW,9.2,-,N/A,,Partly Cloudy,230,2012-10-26 16:44:00
12:54 PM,64.0,52.0,65,30.20,10.0,SSW,9.2,-,N/A,,Partly Cloudy,210,2012-10-26 16:54:00
1:54 PM,66.0,52.0,60,30.18,10.0,SW,6.9,-,N/A,,Partly Cloudy,230,2012-10-26 17:54:00
2:54 PM,64.9,52.0,63,30.15,10.0,South,6.9,-,N/A,,Partly Cloudy,170,2012-10-26 18:54:00
3:54 PM,61.0,48.9,64,30.15,10.0,ESE,11.5,-,N/A,,Partly Cloudy,110,2012-10-26 19:54:00
4:54 PM,59.0,46.9,64,30.13,10.0,ESE,9.2,-,N/A,,Partly Cloudy,110,2012-10-26 20:54:00
5:54 PM,55.9,48.0,75,30.13,10.0,ENE,4.6,-,N/A,,Scattered Clouds,60,2012-10-26 21:54:00
6:54 PM,57.0,48.9,74,30.14,10.0,Calm,Calm,-,N/A,,Scattered Clouds,0,2012-10-26 22:54:00
7:54 PM,55.9,48.9,77,30.14,10.0,Calm,Calm,-,N/A,,Partly Cloudy,0,2012-10-26 23:54:00
8:54 PM,57.0,48.9,74,30.15,10.0,South,9.2,-,N/A,,Partly Cloudy,190,2012-10-27 00:54:00
9:54 PM,54.0,48.0,80,30.15,10.0,South,5.8,-,N/A,,Partly Cloudy,190,2012-10-27 01:54:00
10:54 PM,55.0,48.0,77,30.14,10.0,WSW,5.8,-,N/A,,Partly Cloudy,240,2012-10-27 02:54:00
11:54 PM,55.0,48.0,77,30.14,10.0,SW,8.1,-,N/A,,Partly Cloudy,230,2012-10-27 03:54:00